Find Starlink 2435

NORAD ID: 47843 Int'l Des: 2021-018 Owner: SPXS Country: US Constellation: starlink operational
LEOCIRCULAR

現在のビュー

3D地球を読み込み中...

About Starlink 2435

Starlink 2435 (NORAD 47843) is a starlink constellation satellite (v1.0) launched Mar 11, 2021 by SPXS of US. It operates in LEO, CIRCULAR orbit with a mass of 260.00 kg.

次回通過

Passes for default location (London). Set your location on the main map for personalized predictions.

高度履歴

Loading altitude history...

軌道要素

1 47843U 21018BJ 26237.13976171 .00000457 00000-0 26501-4 0 9997
2 47843 53.1588 191.4113 0001678 78.9153 281.2037 15.31716644302379
Epoch: Aug 25, 2026 • Age: 13 hours

現在のステータス

高度 470.8 km
遠地点 / 近地点 N/A
速度 7.63 km/s
衛星直下点 23.34°N, 6.38°W
打ち上げ日 Mar 11, 2021
運用期間 5.4 years
タイプ internet

技術仕様

分類 Payload
質量 260.00 kg
乾燥質量 248.00 kg
総質量 260.00 kg
長さ 0.20 m
直径 2.80 m
スパン 9.00 m
形状 Box + pan
製造者 SPXS
バスタイプ Starlink
フェーズステータス In Orbit
所有者/国 SPXS/US

Most Searched